,,Stat6,,Stat2,,Stat8,,Stat9,,Stat10,,Wind1,,Wind1,
time,status,PA1M_AVG,status,PR1M_SUM,status,RH1M_AVG,status,SR1M_AVG,status,TA1M_AVG,status,W1dAve1m,status,W1sAve1m,
2005-08-21, 00:00:01,VALID,919.427,VALID,0.2,VALID,100,VALID,0.0169808,VALID,18.7111,VALID,351,VALID,0.191489,
2005-08-21, 00:01:01,VALID,919.425,VALID,0,VALID,100,VALID,0.0169808,VALID,18.7081,VALID,351,VALID,0.129076,
2005-08-21, 00:02:01,VALID,919.411,VALID,0,VALID,100,VALID,0.0169808,VALID,18.6959,VALID,351,VALID,0.132999,
2005-08-21, 00:03:01,VALID,919.401,VALID,0,VALID,100,VALID,0.0169808,VALID,18.692,VALID,351,VALID,0.0274439,
2005-08-21, 00:04:01,VALID,919.398,VALID,0,VALID,100,VALID,0.0169808,VALID,18.7019,VALID,351,VALID,0.141211,
2005-08-21, 00:05:01,VALID,919.404,VALID,0,VALID,100,VALID,0.0169808,VALID,18.7056,VALID,351,VALID,0.130729,
2005-08-21, 00:06:01,VALID,919.406,VALID,0,VALID,100,VALID,0.0509425,VALID,18.7083,VALID,351,VALID,0.000381098,
2005-08-21, 00:07:01,VALID,919.4,VALID,0,VALID,100,VALID,0,VALID,18.7118,VALID,351,VALID,0.173549,
2005-08-21, 00:08:01,VALID,919.414,VALID,0,VALID,100,VALID,0,VALID,18.7083,VALID,351,VALID,0.0880859,
2005-08-21, 00:09:01,VALID,919.395,VALID,0,VALID,100,VALID,0.0339617,VALID,18.692,VALID,351,VALID,0.362326,
2005-08-21, 00:10:01,VALID,919.39,VALID,0,VALID,100,VALID,0,VALID,18.6857,VALID,351,VALID,0.21984,
2005-08-21, 00:11:01,VALID,919.366,VALID,0,VALID,100,VALID,0.0169808,VALID,18.682,VALID,351,VALID,0.0337936,
2005-08-21, 00:12:01,VALID,919.339,VALID,0,VALID,100,VALID,0.0169808,VALID,18.6825,VALID,351,VALID,0,
2005-08-21, 00:13:01,VALID,919.32,VALID,0,VALID,100,VALID,0,VALID,18.6793,VALID,351,VALID,0.166493,
2005-08-21, 00:14:00,VALID,919.294,VALID,0.2,VALID,100,VALID,-0.0169808,VALID,18.6857,VALID,351,VALID,0.429688,
2005-08-21, 00:15:00,VALID,919.278,VALID,0,VALID,100,VALID,-0.0849042,VALID,18.6675,VALID,351,VALID,0.276563,
2005-08-21, 00:16:00,VALID,919.246,VALID,0,VALID,100,VALID,-0.101885,VALID,18.6705,VALID,351,VALID,0.0246094,
2005-08-21, 00:17:00,VALID,919.226,VALID,0,VALID,100,VALID,-0.101885,VALID,18.6779,VALID,351,VALID,0,
2005-08-21, 00:18:00,VALID,919.199,VALID,0,VALID,100,VALID,-0.0849042,VALID,18.6779,VALID,351,VALID,0.12035,
2005-08-21, 00:19:00,VALID,919.186,VALID,0,VALID,100,VALID,-0.0849042,VALID,18.6812,VALID,351,VALID,0.167302,
2005-08-21, 00:20:00,VALID,919.192,VALID,0,VALID,100,VALID,-0.101885,VALID,18.6643,VALID,351,VALID,0.266513,
2005-08-21, 00:21:00,VALID,919.197,VALID,0,VALID,100,VALID,-0.101885,VALID,18.6712,VALID,351,VALID,0.240945,
2005-08-21, 00:22:00,VALID,919.205,VALID,0,VALID,100,VALID,-0.118866,VALID,18.671,VALID,351,VALID,0.155488,
2005-08-21, 00:23:00,VALID,919.222,VALID,0,VALID,100,VALID,-0.0849042,VALID,18.6583,VALID,351,VALID,0.201637,
2005-08-21, 00:24:00,VALID,919.22,VALID,0,VALID,100,VALID,-0.0849042,VALID,18.6615,VALID,351,VALID,0.0145089,
2005-08-21, 00:25:00,VALID,919.226,VALID,0,VALID,100,VALID,-0.101885,VALID,18.6613,VALID,351,VALID,0,
2005-08-21, 00:26:00,VALID,919.23,VALID,0,VALID,100,VALID,-0.0849042,VALID,18.6549,VALID,351,VALID,0,
2005-08-21, 00:27:00,VALID,919.224,VALID,0,VALID,100,VALID,-0.0679233,VALID,18.6613,VALID,351,VALID,0.121838,
2005-08-21, 00:28:00,VALID,919.231,VALID,0,VALID,100,VALID,-0.0169808,VALID,18.6675,VALID,351,VALID,0.516927,
2005-08-21, 00:29:00,VALID,919.239,VALID,0.2,VALID,100,VALID,-0.0509425,VALID,18.6772,VALID,351,VALID,0.511285,
2005-08-21, 00:30:00,VALID,919.263,VALID,0,VALID,100,VALID,-0.0679233,VALID,18.6738,VALID,351,VALID,0.38228,
2005-08-21, 00:31:00,VALID,919.273,VALID,0,VALID,100,VALID,-0.0849042,VALID,18.6968,VALID,351,VALID,0.46984,
2005-08-21, 00:32:00,VALID,919.291,VALID,0,VALID,100,VALID,-0.101885,VALID,18.6906,VALID,351,VALID,0.286577,
2005-08-21, 00:33:00,VALID,919.302,VALID,0,VALID,100,VALID,-0.101885,VALID,18.6839,VALID,351,VALID,0.0431463,
2005-08-21, 00:34:00,VALID,919.297,VALID,0,VALID,100,VALID,-0.0679233,VALID,18.7033,VALID,351,VALID,0,
2005-08-21, 00:35:00,VALID,919.3,VALID,0,VALID,100,VALID,-0.0679233,VALID,18.6994,VALID,351,VALID,0.0732639,
2005-08-21, 00:36:00,VALID,919.305,VALID,0,VALID,100,VALID,-0.0509425,VALID,18.7132,VALID,351,VALID,0.30545,
2005-08-21, 00:37:00,VALID,919.299,VALID,0,VALID,100,VALID,-0.0509425,VALID,18.7033,VALID,351,VALID,0.425,
2005-08-21, 00:38:00,VALID,919.295,VALID,0,VALID,100,VALID,-0.0509425,VALID,18.6936,VALID,351,VALID,0.330333,
2005-08-21, 00:39:00,VALID,919.293,VALID,0,VALID,100,VALID,-0.0679233,VALID,18.6804,VALID,350,VALID,0.191315,
2005-08-21, 00:40:00,VALID,919.296,VALID,0,VALID,100,VALID,-0.0509425,VALID,18.6904,VALID,351,VALID,0.180959,
2005-08-21, 00:41:00,VALID,919.296,VALID,0,VALID,100,VALID,-0.101885,VALID,18.6839,VALID,351,VALID,0.0786701,
2005-08-21, 00:42:00,VALID,919.293,VALID,0,VALID,100,VALID,-0.0679233,VALID,18.6871,VALID,350,VALID,0.0553977,
2005-08-21, 00:43:00,VALID,919.297,VALID,0,VALID,100,VALID,-0.0679233,VALID,18.6938,VALID,350,VALID,0.213605,
2005-08-21, 00:44:00,VALID,919.27,VALID,0,VALID,100,VALID,-0.0679233,VALID,18.7097,VALID,351,VALID,0.0715843,
2005-08-21, 00:45:00,VALID,919.261,VALID,0,VALID,100,VALID,0.0169808,VALID,18.7279,VALID,350,VALID,0.108681,
2005-08-21, 00:46:00,VALID,919.258,VALID,0,VALID,100,VALID,0.0509425,VALID,18.7215,VALID,350,VALID,0.0550595,
2005-08-21, 00:47:00,VALID,919.236,VALID,0,VALID,100,VALID,0.0339617,VALID,18.7083,VALID,350,VALID,0,
2005-08-21, 00:48:00,VALID,919.23,VALID,0,VALID,100,VALID,0.0169808,VALID,18.7012,VALID,351,VALID,0,
2005-08-21, 00:49:00,VALID,919.198,VALID,0,VALID,100,VALID,0.0339617,VALID,18.7242,VALID,351,VALID,0,
2005-08-21, 00:50:00,VALID,919.184,VALID,0,VALID,100,VALID,0.0509425,VALID,18.7272,VALID,351,VALID,0,
2005-08-21, 00:51:00,VALID,919.164,VALID,0,VALID,100,VALID,0.0339617,VALID,18.727,VALID,350,VALID,0,
2005-08-21, 00:52:00,VALID,919.146,VALID,0.2,VALID,100,VALID,0.0509425,VALID,18.7171,VALID,351,VALID,0,
2005-08-21, 00:53:00,VALID,919.128,VALID,0,VALID,100,VALID,0,VALID,18.7272,VALID,351,VALID,0,
2005-08-21, 00:54:00,VALID,919.115,VALID,0,VALID,100,VALID,0.0509425,VALID,18.7632,VALID,351,VALID,0,
2005-08-21, 00:55:00,VALID,919.1,VALID,0,VALID,100,VALID,0,VALID,18.7729,VALID,351,VALID,0.0488735,
2005-08-21, 00:56:00,VALID,919.085,VALID,0,VALID,100,VALID,0.0339617,VALID,18.7724,VALID,351,VALID,0,
2005-08-21, 00:57:00,VALID,919.076,VALID,0,VALID,100,VALID,0.0339617,VALID,18.792,VALID,351,VALID,0.0574219,
2005-08-21, 00:58:00,VALID,919.07,VALID,0,VALID,100,VALID,0.0509425,VALID,18.7888,VALID,351,VALID,0.142442,
2005-08-21, 00:59:00,VALID,919.041,VALID,0,VALID,100,VALID,-0.0169808,VALID,18.7538,VALID,351,VALID,0.0133168,
2005-08-21, 01:00:00,VALID,919.018,VALID,0,VALID,100,VALID,-0.0849042,VALID,18.7547,VALID,2,VALID,0.272049,
2005-08-21, 01:01:00,VALID,918.995,VALID,0,VALID,100,VALID,-0.0509425,VALID,18.7542,VALID,20,VALID,0.179688,
2005-08-21, 01:02:00,VALID,918.987,VALID,0,VALID,100,VALID,-0.0849042,VALID,18.7582,VALID,20,VALID,0.011814,
2005-08-21, 01:03:00,VALID,918.992,VALID,0,VALID,100,VALID,-0.101885,VALID,18.7483,VALID,311,VALID,0.503196,
2005-08-21, 01:04:00,VALID,918.965,VALID,0,VALID,100,VALID,-0.0679233,VALID,18.7383,VALID,255,VALID,0.224864,
2005-08-21, 01:05:00,VALID,918.938,VALID,0,VALID,100,VALID,-0.0679233,VALID,18.7351,VALID,255,VALID,0.000173611,
2005-08-21, 01:06:00,VALID,918.918,VALID,0,VALID,100,VALID,-0.0849042,VALID,18.7542,VALID,337,VALID,0.731585,
2005-08-21, 01:07:00,VALID,918.891,VALID,0,VALID,100,VALID,-0.0509425,VALID,18.7674,VALID,9,VALID,0.559837,
2005-08-21, 01:08:00,VALID,918.877,VALID,0,VALID,100,VALID,-0.0849042,VALID,18.7706,VALID,9,VALID,0.0844494,
2005-08-21, 01:09:00,VALID,918.877,VALID,0,VALID,100,VALID,-0.0849042,VALID,18.7706,VALID,309,VALID,0.276758,
2005-08-21, 01:10:00,VALID,918.87,VALID,0,VALID,100,VALID,-0.0339617,VALID,18.7448,VALID,232,VALID,0.508721,
2005-08-21, 01:11:00,VALID,918.865,VALID,0,VALID,100,VALID,-0.0679233,VALID,18.7319,VALID,232,VALID,0.466332,
2005-08-21, 01:12:00,VALID,918.837,VALID,0,VALID,100,VALID,-0.0849042,VALID,18.6996,VALID,232,VALID,0.463956,
2005-08-21, 01:13:00,VALID,918.806,VALID,0,VALID,100,VALID,-0.0849042,VALID,18.6834,VALID,232,VALID,0.0770597,
2005-08-21, 01:14:00,VALID,918.78,VALID,0,VALID,100,VALID,-0.0339617,VALID,18.6825,VALID,232,VALID,0.000355114,
2005-08-21, 01:15:00,VALID,918.756,VALID,0,VALID,100,VALID,0.0849042,VALID,18.7046,VALID,232,VALID,0,
2005-08-21, 01:16:00,VALID,918.736,VALID,0,VALID,100,VALID,0.0169808,VALID,18.7212,VALID,232,VALID,0,
2005-08-21, 01:17:00,VALID,918.724,VALID,0,VALID,100,VALID,0.0509425,VALID,18.7175,VALID,232,VALID,0,
2005-08-21, 01:18:00,VALID,918.71,VALID,0,VALID,100,VALID,0,VALID,18.7109,VALID,232,VALID,0.195126,
2005-08-21, 01:19:00,VALID,918.709,VALID,0.2,VALID,100,VALID,0.0169808,VALID,18.6982,VALID,232,VALID,0.0234375,
2005-08-21, 01:20:00,VALID,918.694,VALID,0,VALID,100,VALID,0.0339617,VALID,18.721,VALID,280,VALID,0.285065,
2005-08-21, 01:21:00,VALID,918.694,VALID,0,VALID,100,VALID,0.0169808,VALID,18.7374,VALID,2,VALID,0.718936,
2005-08-21, 01:22:00,VALID,918.689,VALID,0,VALID,100,VALID,0.0169808,VALID,18.7468,VALID,20,VALID,0.734947,
2005-08-21, 01:23:00,VALID,918.679,VALID,0,VALID,100,VALID,0.0169808,VALID,18.7409,VALID,26,VALID,0.560404,
2005-08-21, 01:24:00,VALID,918.681,VALID,0,VALID,100,VALID,0.0169808,VALID,18.7466,VALID,26,VALID,0.245722,
2005-08-21, 01:25:00,VALID,918.682,VALID,0,VALID,100,VALID,0.0339617,VALID,18.7533,VALID,26,VALID,0.199491,
2005-08-21, 01:26:00,VALID,918.662,VALID,0,VALID,100,VALID,0.0169808,VALID,18.7272,VALID,26,VALID,0.225142,
2005-08-21, 01:27:00,VALID,918.654,VALID,0,VALID,100,VALID,0.0339617,VALID,18.7111,VALID,26,VALID,0.0368823,
2005-08-21, 01:28:00,VALID,918.652,VALID,0,VALID,100,VALID,0.0169808,VALID,18.7009,VALID,26,VALID,0.000545058,
2005-08-21, 01:29:00,VALID,918.639,VALID,0,VALID,100,VALID,0.0339617,VALID,18.7272,VALID,26,VALID,0.209484,
2005-08-21, 01:30:00,VALID,918.632,VALID,0,VALID,100,VALID,0.0339617,VALID,18.7399,VALID,26,VALID,0.0266768,
2005-08-21, 01:31:00,VALID,918.628,VALID,0,VALID,100,VALID,0.0509425,VALID,18.7593,VALID,26,VALID,0.295277,
2005-08-21, 01:32:00,VALID,918.627,VALID,0,VALID,100,VALID,0,VALID,18.7466,VALID,26,VALID,0.349144,
2005-08-21, 01:33:00,VALID,918.614,VALID,0,VALID,100,VALID,0.0679233,VALID,18.7335,VALID,26,VALID,0.325521,
2005-08-21, 01:34:00,VALID,918.622,VALID,0,VALID,100,VALID,0.101885,VALID,18.7106,VALID,26,VALID,0.179883,
2005-08-21, 01:35:00,VALID,918.622,VALID,0,VALID,100,VALID,0.0679233,VALID,18.7171,VALID,26,VALID,0.161086,
2005-08-21, 01:36:00,VALID,918.628,VALID,0,VALID,100,VALID,0.0679233,VALID,18.7367,VALID,26,VALID,0.226926,
2005-08-21, 01:37:00,VALID,918.641,VALID,0,VALID,100,VALID,0.0849042,VALID,18.7394,VALID,26,VALID,0.14755,
2005-08-21, 01:38:00,VALID,918.64,VALID,0,VALID,100,VALID,0.0509425,VALID,18.7434,VALID,26,VALID,0.462728,
2005-08-21, 01:39:00,VALID,918.64,VALID,0,VALID,100,VALID,0,VALID,18.7568,VALID,26,VALID,0.474069,
2005-08-21, 01:40:00,VALID,918.652,VALID,0,VALID,100,VALID,0.0339617,VALID,18.7565,VALID,26,VALID,0.305596,
2005-08-21, 01:41:00,VALID,918.646,VALID,0,VALID,100,VALID,0.0339617,VALID,18.7558,VALID,26,VALID,0.373935,
2005-08-21, 01:42:00,VALID,918.647,VALID,0,VALID,100,VALID,0.0509425,VALID,18.7787,VALID,26,VALID,0.353516,
2005-08-21, 01:43:00,VALID,918.664,VALID,0,VALID,100,VALID,0.0679233,VALID,18.7625,VALID,26,VALID,0.272879,
2005-08-21, 01:44:00,VALID,918.664,VALID,0,VALID,100,VALID,0.0169808,VALID,18.7722,VALID,26,VALID,0.112038,
2005-08-21, 01:45:00,VALID,918.667,VALID,0,VALID,100,VALID,0.0679233,VALID,18.7789,VALID,26,VALID,0.101563,
2005-08-21, 01:46:00,VALID,918.659,VALID,0,VALID,100,VALID,0.0339617,VALID,18.792,VALID,26,VALID,0.00710227,
2005-08-21, 01:47:00,VALID,918.659,VALID,0,VALID,100,VALID,0.0509425,VALID,18.795,VALID,26,VALID,0,
2005-08-21, 01:48:00,VALID,918.648,VALID,0,VALID,100,VALID,0.0339617,VALID,18.8112,VALID,26,VALID,0,
2005-08-21, 01:49:00,VALID,918.655,VALID,0,VALID,100,VALID,0.0509425,VALID,18.7851,VALID,26,VALID,0,
2005-08-21, 01:50:00,VALID,918.652,VALID,0,VALID,100,VALID,0.0169808,VALID,18.7752,VALID,26,VALID,0,
2005-08-21, 01:51:00,VALID,918.623,VALID,0,VALID,100,VALID,0.0509425,VALID,18.7849,VALID,26,VALID,0.216332,
2005-08-21, 01:52:00,VALID,918.606,VALID,0,VALID,100,VALID,0.0509425,VALID,18.7918,VALID,26,VALID,0.28032,
2005-08-21, 01:53:00,VALID,918.59,VALID,0,VALID,100,VALID,0,VALID,18.7953,VALID,26,VALID,0.112393,
2005-08-21, 01:54:00,VALID,918.607,VALID,0,VALID,100,VALID,0.0679233,VALID,18.7824,VALID,5,VALID,0.434375,
2005-08-21, 01:55:00,VALID,918.595,VALID,0,VALID,100,VALID,0.0339617,VALID,18.7722,VALID,246,VALID,0.365234,
2005-08-21, 01:56:00,VALID,918.584,VALID,0,VALID,100,VALID,0.0679233,VALID,18.7653,VALID,246,VALID,0.0255682,
2005-08-21, 01:57:00,VALID,918.57,VALID,0,VALID,100,VALID,0.0339617,VALID,18.7886,VALID,246,VALID,0.0744141,
2005-08-21, 01:58:00,VALID,918.564,VALID,0,VALID,100,VALID,0.0339617,VALID,18.7879,VALID,248,VALID,0.0711349,
2005-08-21, 01:59:00,VALID,918.567,VALID,0,VALID,100,VALID,0.0339617,VALID,18.7983,VALID,350,VALID,0.136628,
2005-08-21, 02:00:00,VALID,918.566,VALID,0,VALID,100,VALID,0.0509425,VALID,18.7854,VALID,350,VALID,0.0626698,
2005-08-21, 02:01:00,VALID,918.562,VALID,0,VALID,100,VALID,0.0339617,VALID,18.7431,VALID,350,VALID,0,
2005-08-21, 02:02:00,VALID,918.553,VALID,0,VALID,100,VALID,0,VALID,18.7528,VALID,350,VALID,0.121185,
2005-08-21, 02:03:00,VALID,918.558,VALID,0,VALID,100,VALID,0.0509425,VALID,18.7528,VALID,350,VALID,0,
2005-08-21, 02:04:00,VALID,918.551,VALID,0,VALID,100,VALID,0.0509425,VALID,18.7464,VALID,350,VALID,0,
2005-08-21, 02:05:00,VALID,918.539,VALID,0,VALID,100,VALID,0.0509425,VALID,18.769,VALID,350,VALID,0.232279,
2005-08-21, 02:06:00,VALID,918.534,VALID,0,VALID,100,VALID,0.0169808,VALID,18.7468,VALID,350,VALID,0.0983232,
2005-08-21, 02:07:00,VALID,918.526,VALID,0,VALID,100,VALID,0.0339617,VALID,18.7466,VALID,350,VALID,0.400618,
2005-08-21, 02:08:00,VALID,918.516,VALID,0,VALID,100,VALID,0,VALID,18.7436,VALID,351,VALID,0.603693,
2005-08-21, 02:09:00,VALID,918.509,VALID,0,VALID,100,VALID,0,VALID,18.7533,VALID,352,VALID,0.590216,
2005-08-21, 02:10:00,VALID,918.514,VALID,0,VALID,100,VALID,0,VALID,18.724,VALID,359,VALID,0.768102,
2005-08-21, 02:11:00,VALID,918.499,VALID,0,VALID,100,VALID,0,VALID,18.724,VALID,24,VALID,0.946801,
2005-08-21, 02:12:00,VALID,918.488,VALID,0,VALID,100,VALID,0.0169808,VALID,18.7275,VALID,17,VALID,1.00545,
2005-08-21, 02:13:00,VALID,918.492,VALID,0,VALID,100,VALID,0,VALID,18.721,VALID,14,VALID,0.905488,
2005-08-21, 02:14:00,VALID,918.486,VALID,0,VALID,100,VALID,0,VALID,18.722,VALID,20,VALID,0.782138,
2005-08-21, 02:15:00,VALID,918.481,VALID,0,VALID,100,VALID,-0.101885,VALID,18.719,VALID,11,VALID,0.976372,
2005-08-21, 02:16:00,VALID,918.458,VALID,0,VALID,100,VALID,-0.0679233,VALID,18.7028,VALID,9,VALID,1.09766,
2005-08-21, 02:17:00,VALID,918.439,VALID,0,VALID,100,VALID,-0.0849042,VALID,18.6864,VALID,17,VALID,1.53011,
2005-08-21, 02:18:00,VALID,918.397,VALID,0,VALID,100,VALID,-0.0509425,VALID,18.6931,VALID,26,VALID,1.61192,
2005-08-21, 02:19:00,VALID,918.388,VALID,0,VALID,100,VALID,-0.0339617,VALID,18.6767,VALID,18,VALID,1.64933,
2005-08-21, 02:20:00,VALID,918.383,VALID,0,VALID,100,VALID,-0.0679233,VALID,18.6765,VALID,25,VALID,1.44786,
2005-08-21, 02:21:00,VALID,918.362,VALID,0,VALID,100,VALID,-0.0679233,VALID,18.6703,VALID,23,VALID,1.05918,
2005-08-21, 02:22:00,VALID,918.342,VALID,0,VALID,100,VALID,-0.0339617,VALID,18.6767,VALID,12,VALID,0.938227,
2005-08-21, 02:23:00,VALID,918.32,VALID,0,VALID,100,VALID,-0.0509425,VALID,18.6703,VALID,15,VALID,0.768895,
2005-08-21, 02:24:00,VALID,918.323,VALID,0,VALID,100,VALID,-0.0339617,VALID,18.6832,VALID,9,VALID,0.765799,
2005-08-21, 02:25:00,VALID,918.319,VALID,0,VALID,100,VALID,-0.0679233,VALID,18.6996,VALID,26,VALID,0.620206,
2005-08-21, 02:26:00,VALID,918.325,VALID,0,VALID,100,VALID,-0.101885,VALID,18.6929,VALID,23,VALID,0.96984,
2005-08-21, 02:27:00,VALID,918.328,VALID,0,VALID,100,VALID,-0.0509425,VALID,18.6864,VALID,356,VALID,0.908381,
2005-08-21, 02:28:00,VALID,918.304,VALID,0,VALID,100,VALID,-0.0509425,VALID,18.6897,VALID,9,VALID,0.947599,
2005-08-21, 02:29:00,VALID,918.293,VALID,0,VALID,100,VALID,-0.0339617,VALID,18.6929,VALID,30,VALID,0.911519,
2005-08-21, 02:30:00,VALID,918.277,VALID,0,VALID,100,VALID,-0.0509425,VALID,18.6832,VALID,17,VALID,1.08535,
2005-08-21, 02:31:00,VALID,918.271,VALID,0,VALID,100,VALID,-0.0679233,VALID,18.6998,VALID,19,VALID,0.4504,
2005-08-21, 02:32:00,VALID,918.255,VALID,0,VALID,100,VALID,-0.0679233,VALID,18.6991,VALID,12,VALID,0.467262,
2005-08-21, 02:33:00,VALID,918.239,VALID,0,VALID,100,VALID,-0.0339617,VALID,18.7028,VALID,1,VALID,0.578125,
2005-08-21, 02:34:00,VALID,918.224,VALID,0,VALID,100,VALID,-0.0509425,VALID,18.6901,VALID,328,VALID,0.71766,
2005-08-21, 02:35:00,VALID,918.212,VALID,0,VALID,100,VALID,-0.0849042,VALID,18.6772,VALID,334,VALID,0.490473,
2005-08-21, 02:36:00,VALID,918.185,VALID,0,VALID,100,VALID,-0.0169808,VALID,18.6804,VALID,6,VALID,0.81064,
2005-08-21, 02:37:00,VALID,918.17,VALID,0,VALID,100,VALID,-0.0509425,VALID,18.7058,VALID,27,VALID,0.797247,
2005-08-21, 02:38:00,VALID,918.147,VALID,0,VALID,100,VALID,-0.0339617,VALID,18.7153,VALID,316,VALID,0.65407,
2005-08-21, 02:39:00,VALID,918.15,VALID,0,VALID,100,VALID,-0.0169808,VALID,18.7279,VALID,345,VALID,0.36319,
2005-08-21, 02:40:00,VALID,918.142,VALID,0,VALID,100,VALID,-0.0339617,VALID,18.751,VALID,345,VALID,0.0359738,
2005-08-21, 02:41:00,VALID,918.13,VALID,0,VALID,100,VALID,-0.0509425,VALID,18.7676,VALID,345,VALID,0.0916941,
2005-08-21, 02:42:00,VALID,918.134,VALID,0,VALID,100,VALID,-0.0679233,VALID,18.7409,VALID,345,VALID,0.381722,
2005-08-21, 02:43:00,VALID,918.121,VALID,0,VALID,100,VALID,-0.0849042,VALID,18.748,VALID,8,VALID,0.794271,
2005-08-21, 02:44:00,VALID,918.141,VALID,0,VALID,100,VALID,0,VALID,18.7155,VALID,14,VALID,1.0163,
2005-08-21, 02:45:00,VALID,918.14,VALID,0,VALID,100,VALID,-0.0679233,VALID,18.6636,VALID,8,VALID,1.20032,
2005-08-21, 02:46:00,VALID,918.153,VALID,0,VALID,100,VALID,-0.0509425,VALID,18.6345,VALID,13,VALID,1.26367,
2005-08-21, 02:47:00,VALID,918.175,VALID,0,VALID,100,VALID,-0.0849042,VALID,18.6641,VALID,12,VALID,1.37843,
2005-08-21, 02:48:00,VALID,918.184,VALID,0.2,VALID,100,VALID,-0.0679233,VALID,18.6708,VALID,15,VALID,0.991655,
2005-08-21, 02:49:00,VALID,918.193,VALID,0,VALID,100,VALID,-0.0679233,VALID,18.6738,VALID,16,VALID,1.22284,
2005-08-21, 02:50:00,VALID,918.203,VALID,0,VALID,100,VALID,-0.0849042,VALID,18.6641,VALID,1,VALID,1.13789,
2005-08-21, 02:51:00,VALID,918.189,VALID,0,VALID,100,VALID,-0.0509425,VALID,18.6484,VALID,11,VALID,0.968559,
2005-08-21, 02:52:00,VALID,918.172,VALID,0,VALID,100,VALID,-0.0679233,VALID,18.6223,VALID,6,VALID,1.18535,
2005-08-21, 02:53:00,VALID,918.171,VALID,0,VALID,100,VALID,-0.0509425,VALID,18.6184,VALID,26,VALID,0.877486,
2005-08-21, 02:54:00,VALID,918.173,VALID,0,VALID,100,VALID,-0.0339617,VALID,18.6385,VALID,27,VALID,0.720861,
2005-08-21, 02:55:00,VALID,918.152,VALID,0,VALID,100,VALID,-0.0339617,VALID,18.6315,VALID,27,VALID,0.788086,
2005-08-21, 02:56:00,VALID,918.16,VALID,0.2,VALID,100,VALID,-0.0679233,VALID,18.6348,VALID,27,VALID,0.771289,
2005-08-21, 02:57:00,VALID,918.166,VALID,0,VALID,100,VALID,-0.0679233,VALID,18.635,VALID,30,VALID,0.678961,
2005-08-21, 02:58:00,VALID,918.164,VALID,0,VALID,100,VALID,-0.0849042,VALID,18.6447,VALID,29,VALID,0.761541,
2005-08-21, 02:59:00,VALID,918.166,VALID,0,VALID,100,VALID,-0.0169808,VALID,18.635,VALID,28,VALID,0.53016,
2005-08-21, 03:00:00,VALID,918.167,VALID,0,VALID,100,VALID,0,VALID,18.6403,VALID,28,VALID,0.373828,
2005-08-21, 03:01:00,VALID,918.165,VALID,0,VALID,100,VALID,0,VALID,18.6401,VALID,28,VALID,0.262957,
2005-08-21, 03:02:00,VALID,918.174,VALID,0,VALID,100,VALID,0,VALID,18.6634,VALID,28,VALID,0.519231,
2005-08-21, 03:03:00,VALID,918.171,VALID,0,VALID,100,VALID,0,VALID,18.6763,VALID,28,VALID,0.547238,
2005-08-21, 03:04:00,VALID,918.165,VALID,0,VALID,100,VALID,-0.0169808,VALID,18.673,VALID,28,VALID,0.475852,
2005-08-21, 03:05:00,VALID,918.171,VALID,0,VALID,100,VALID,0,VALID,18.6631,VALID,28,VALID,0.30593,
2005-08-21, 03:06:00,VALID,918.166,VALID,0,VALID,100,VALID,0,VALID,18.6403,VALID,22,VALID,0.540625,
2005-08-21, 03:07:00,VALID,918.17,VALID,0,VALID,100,VALID,0,VALID,18.6244,VALID,21,VALID,0.395486,
2005-08-21, 03:08:00,VALID,918.167,VALID,0,VALID,100,VALID,0,VALID,18.6311,VALID,21,VALID,0.126488,
2005-08-21, 03:09:00,VALID,918.166,VALID,0,VALID,100,VALID,0,VALID,18.6373,VALID,21,VALID,0.102083,
2005-08-21, 03:10:00,VALID,918.157,VALID,0,VALID,100,VALID,0,VALID,18.6467,VALID,21,VALID,0.401677,
2005-08-21, 03:11:00,VALID,918.163,VALID,0,VALID,100,VALID,0,VALID,18.6435,VALID,21,VALID,0.480469,
2005-08-21, 03:12:00,VALID,918.161,VALID,0,VALID,100,VALID,0,VALID,18.644,VALID,21,VALID,0.229651,
2005-08-21, 03:13:00,VALID,918.167,VALID,0,VALID,100,VALID,-0.0169808,VALID,18.6368,VALID,23,VALID,0.239281,
2005-08-21, 03:14:00,VALID,918.144,VALID,0,VALID,100,VALID,0,VALID,18.6373,VALID,39,VALID,0.548971,
2005-08-21, 03:15:00,VALID,918.143,VALID,0,VALID,100,VALID,0,VALID,18.6507,VALID,40,VALID,0.564103,
2005-08-21, 03:16:00,VALID,918.139,VALID,0.2,VALID,100,VALID,0,VALID,18.6368,VALID,40,VALID,0.765997,
2005-08-21, 03:17:00,VALID,918.133,VALID,0,VALID,100,VALID,0,VALID,18.6343,VALID,41,VALID,0.93936,
2005-08-21, 03:18:00,VALID,918.137,VALID,0,VALID,100,VALID,0,VALID,18.6532,VALID,36,VALID,0.641533,
2005-08-21, 03:19:00,VALID,918.118,VALID,0,VALID,100,VALID,0.0169808,VALID,18.6666,VALID,32,VALID,0.835417,
2005-08-21, 03:20:00,VALID,918.101,VALID,0,VALID,100,VALID,0,VALID,18.653,VALID,32,VALID,0.943452,
2005-08-21, 03:21:00,VALID,918.094,VALID,0,VALID,100,VALID,0,VALID,18.6537,VALID,23,VALID,0.888317,
2005-08-21, 03:22:00,VALID,918.07,VALID,0,VALID,100,VALID,0,VALID,18.647,VALID,32,VALID,0.76456,
2005-08-21, 03:23:00,VALID,918.078,VALID,0,VALID,100,VALID,0,VALID,18.647,VALID,37,VALID,0.789583,
2005-08-21, 03:24:00,VALID,918.062,VALID,0,VALID,100,VALID,0.0169808,VALID,18.6497,VALID,40,VALID,0.788336,
2005-08-21, 03:25:00,VALID,918.065,VALID,0,VALID,100,VALID,0.0169808,VALID,18.6239,VALID,43,VALID,0.918341,
2005-08-21, 03:26:00,VALID,918.071,VALID,0,VALID,100,VALID,0,VALID,18.6145,VALID,37,VALID,0.730469,
2005-08-21, 03:27:00,VALID,918.064,VALID,0,VALID,100,VALID,0,VALID,18.6138,VALID,38,VALID,0.598837,
2005-08-21, 03:28:00,VALID,918.056,VALID,0,VALID,100,VALID,0.0169808,VALID,18.6142,VALID,41,VALID,0.519985,
2005-08-21, 03:29:00,VALID,918.043,VALID,0,VALID,100,VALID,0.0169808,VALID,18.6011,VALID,45,VALID,0.462305,
2005-08-21, 03:30:00,VALID,918.034,VALID,0,VALID,100,VALID,0,VALID,18.5817,VALID,45,VALID,0.386052,
2005-08-21, 03:31:00,VALID,918.014,VALID,0,VALID,100,VALID,0,VALID,18.5856,VALID,45,VALID,0.206214,
2005-08-21, 03:32:00,VALID,917.994,VALID,0,VALID,100,VALID,-0.0169808,VALID,18.5591,VALID,45,VALID,0.175959,
2005-08-21, 03:33:00,VALID,917.985,VALID,0,VALID,100,VALID,0.0169808,VALID,18.5656,VALID,45,VALID,0.0877544,
2005-08-21, 03:34:00,VALID,917.978,VALID,0,VALID,100,VALID,0,VALID,18.566,VALID,45,VALID,0,
2005-08-21, 03:35:00,VALID,917.959,VALID,0,VALID,100,VALID,0,VALID,18.5534,VALID,45,VALID,0,
2005-08-21, 03:36:00,VALID,917.949,VALID,0,VALID,100,VALID,0.0169808,VALID,18.5497,VALID,45,VALID,0.0902344,
2005-08-21, 03:37:00,VALID,917.933,VALID,0,VALID,100,VALID,0,VALID,18.5464,VALID,45,VALID,0.226744,
2005-08-21, 03:38:00,VALID,917.915,VALID,0.2,VALID,100,VALID,0,VALID,18.54,VALID,45,VALID,0.0446429,
2005-08-21, 03:39:00,VALID,917.897,VALID,0,VALID,100,VALID,0,VALID,18.54,VALID,45,VALID,0,
2005-08-21, 03:40:00,VALID,917.89,VALID,0,VALID,100,VALID,0.0169808,VALID,18.5499,VALID,45,VALID,0.135742,
2005-08-21, 03:41:00,VALID,917.873,VALID,0,VALID,100,VALID,-0.0169808,VALID,18.5529,VALID,45,VALID,0.241016,